Regional Weather Roundup
Issued by NWS Newport/Morehead, NC

Current Version | Previous Version | Graphics & Text | Print | Product List | Glossary Off
Versions: 1 2 3 4 5 6 7 8 9 10 11 12 13 14 15 16 17 18 19 20 21 22 23 24 25 26 27 28 29 30 31 32 33 34 35 36 37 38 39 40 41 42 43 44 45 46 47 48 49 50

000
ASUS42 KMHX 310113
RWRMHX
WEATHER ROUNDUP FOR EASTERN NORTH CAROLINA
NATIONAL WEATHER SERVICE NEWPORT/MOREHEAD CITY NC
900 PM EDT THU JUL 30 2015

NOTE: "FAIR" INDICATES FEW OR NO CLOUDS BELOW 12,000 FEET
WITH NO SIGNIFICANT WEATHER AND/OR OBSTRUCTIONS TO VISIBILITY

NCZ015>017-031-032-045>047-102-103-310200-
NORTH COAST

CITY           SKY/WX    TMP DP  RH WIND       PRES   REMARKS
EDENTON          N/A     82  74  76 S12       29.89R
ELIZABETH CITY PTCLDY    83  76  79 S9        29.90R
KITTY HAWK     MOCLDY    82  73  72 S6        29.90R
MANTEO         MOCLDY    82  74  76 S15       29.91R

$$

NCZ045>047-081-094-103-104-310200-
CENTRAL COAST

CITY           SKY/WX    TMP DP  RH WIND       PRES   REMARKS
FRISCO         MOCLDY    82  75  79 S12       29.91S
SWANQUARTER      N/A     82 N/A N/A SE7G13    29.88R

$$

NCZ095-097-098-100-101-310200-
SOUTHERN COAST

CITY           SKY/WX    TMP DP  RH WIND       PRES   REMARKS
BEAUFORT       PTCLDY    81  76  84 SE7       29.89R
CEDAR ISLAND     N/A     81 N/A N/A SE3G10    29.94R
JACKSONVILLE   PTCLDY    81  75  82 S5        29.88R
PINEY ISLAND   PTCLDY   N/A N/A N/A MISG      29.89S
WILMINGTON     PTCLDY    82  74  76 SE5       29.88R


$$

NCZ011>013-027>030-043-044-078>080-089-090>093-098-310200-
COASTAL PLAIN

CITY           SKY/WX    TMP DP  RH WIND       PRES   REMARKS
AHOSKIE        MOCLDY    83  74  76 CALM      29.88S
CLINTON        PTCLDY    84  75  73 CALM      29.88R
ELIZABETHTOWN  PTCLDY    85  72  63 CALM      29.87R
GOLDSBORO      NOT AVBL
GREENVILLE     PTCLDY    86  75  70 S5        29.90S
HAVELOCK       MOCLDY    81  74  79 SE5       29.90R
KENANSVILLE    PTCLDY   N/A N/A N/A CALM      29.90R
KINSTON        PTCLDY    84  75  74 S7        29.89R
NEW BERN       PTCLDY    81  74  79 SE5       29.90R
RICHLANDS      PTCLDY    81  72  74 CALM      29.89R
ROCKY MOUNT    CLOUDY    82  74  76 NW6       29.89R
WASHINGTON     PTCLDY    82  75  78 SE3       29.89R
WHITEVILLE     PTCLDY    85  75  72 SE5       29.88R

$$

AMZ130-135-150-152-154-156-158-170-250-252-270-ANZ085-086-088-633-658-670-310200-
MARINE OBSERVATIONS

STATION/POSITION TIME  TEMP    WIND        PRES    WAVE   SWELL
                       AIR SEA DIR/SP/G            HT/PER HT/PER
                 (UTC) (F)     (DEG/KT/KT) (MB)    (FT/S) (FT/S)
CHESAPEAKE LIGHT 0000   82     170/ 17/ 18 1012.1
64 E VA BEACH    0050   82 82  190/ 17/ 19 1012.4    4/ 6   2/ 8
DUCK             0000   83 65  180/ 14/ 18 1011.2
2 E DUCK         0011      71                N/A     3/10
OREGON INLET     0000   83 87  160/ 12/ 16 1012.5
13E OREGON INLT  0100      81                N/A     4/ 6   2/11
HATTERAS CG      0000   82 84  170/  8/ 13 1012.5
DIAMOND BUOY     0050   83 86  170/ 16/ 19 1012.8    4/ 8   2/ 8
CAPE LOOKOUT     0100   82     160/ 10/ 11 1011.9
BEAUFORT LAB     0000   82 82  150/  8/ 10 1011.3
30 SE NEW RVR IN NOT AVBL
27 SE WRIGHTSVLE 0000   80 83  130/  6/ 10   N/A
5 SE WRIGHTSVLE  0008   83 83  140/  8/ 12 1011.2
225 S CAPE HAT   0050   80 81  220/ 23/ 29 1012.8   12/ 9
41 SE CHARLESTON 0050   85 85  240/  8/ 10 1011.8    2/ 8   2/ 8

$$


USA.gov is the U.S. government's official web portal to all federal, state and local government web resources and services.